{"data":{"norad_id":65312,"intl_designator":"2025-187H","name":"HULIANWANG DIGUI-80","alt_names":[],"object_type":"PAYLOAD","status":"ACTIVE","operator":null,"country":"PRC","launch_date":"2025-08-25","launch_site_code":"WSC","launch_vehicle":null,"mission":null,"orbit_class":"UNKNOWN","rcs_meters":null,"size_class":null,"mass_kg":null,"dimensions":null,"purposes":[],"wikipedia_slug":null,"has_3d_model":false,"image_url":null,"decayed_at":null,"tle_current":{"epoch":"2026-05-25T03:22:42.463200Z","epoch_age_seconds":53160,"freshness":"FRESH","line1":"1 65312U 25187H   26145.14076925 -.00000099  00000+0  54190-4 0  9993","line2":"2 65312  50.0037 288.5598 0000677  80.3240 279.7708 13.29321946 36634","mean_motion":13.29321946,"eccentricity":6.77e-5,"inclination_deg":50.0037,"raan_deg":288.5598,"arg_perigee_deg":80.324,"mean_anomaly_deg":279.7708,"bstar":5.419e-5,"rev_number":3663,"period_min":108.32590286597,"perigee_km":1148.8122670514,"apogee_km":1149.8314849833,"semimajor_km":7527.4588760173,"source":"CELESTRAK","updated_at":"2026-05-25T13:38:05.300905Z"}}}